Time,TemperatureF,DewpointF,PressureIn,WindDirection,WindDirectionDegrees,WindSpeedMPH,WindSpeedGustMPH,Humidity,HourlyPrecipIn,Conditions,Clouds,dailyrainin,SoftwareType,DateUTC
2013-01-10 00:00:00,76.5,68.7,30.30,ESE,112,13.2,13.2,77,0.00,CLR,,0.00,WeatherDisplay:10.37,2013-01-10 05:00:00,
2013-01-10 00:04:00,76.5,68.7,30.30,SE,135,8.1,8.1,77,0.00,CLR,,0.00,WeatherDisplay:10.37,2013-01-10 05:04:00,
2013-01-10 00:09:00,76.5,68.7,30.30,ENE,68,9.2,9.2,77,0.00,CLR,,0.00,WeatherDisplay:10.37,2013-01-10 05:09:00,
2013-01-10 00:14:00,76.5,68.3,30.30,East,90,10.4,10.4,76,0.00,CLR,,0.00,WeatherDisplay:10.37,2013-01-10 05:14:00,
2013-01-10 00:19:00,76.5,68.3,30.30,NE,45,12.7,12.7,76,0.00,CLR,,0.00,WeatherDisplay:10.37,2013-01-10 05:19:00,
2013-01-10 00:25:00,76.5,68.3,30.30,ESE,112,10.4,10.4,76,0.00,CLR,,0.00,WeatherDisplay:10.37,2013-01-10 05:25:00,
2013-01-10 00:30:00,76.5,68.3,30.30,ENE,68,10.2,10.2,76,0.00,CLR,,0.00,WeatherDisplay:10.37,2013-01-10 05:30:00,
2013-01-10 00:35:00,76.5,68.3,30.30,ESE,112,6.0,9.0,76,0.00,CLR,,0.00,WeatherDisplay:10.37,2013-01-10 05:35:00,
2013-01-10 00:40:00,76.5,68.7,30.30,East,90,15.0,15.0,77,0.00,CLR,,0.00,WeatherDisplay:10.37,2013-01-10 05:40:00,
2013-01-10 00:45:00,76.5,68.7,30.30,West,270,8.1,8.1,77,0.00,CLR,,0.00,WeatherDisplay:10.37,2013-01-10 05:45:00,
2013-01-10 00:50:00,76.5,68.7,30.30,SE,125,5.0,13.0,77,0.00,CLR,,0.00,WeatherDisplay:10.37,2013-01-10 05:50:00,
2013-01-10 00:55:00,76.5,68.7,30.30,NE,45,12.7,12.7,77,0.00,CLR,,0.00,WeatherDisplay:10.37,2013-01-10 05:55:00,
2013-01-10 01:00:00,76.5,68.7,30.30,ESE,117,3.0,9.0,77,0.00,CLR,,0.00,WeatherDisplay:10.37,2013-01-10 06:00:00,
2013-01-10 01:06:00,76.5,68.7,30.30,NNE,22,10.4,10.4,77,0.00,CLR,,0.00,WeatherDisplay:10.37,2013-01-10 06:06:00,
2013-01-10 01:11:00,76.3,68.5,30.30,East,90,6.0,6.0,77,0.00,CLR,,0.00,WeatherDisplay:10.37,2013-01-10 06:11:00,
2013-01-10 01:16:00,76.3,68.2,30.30,ESE,112,12.3,12.3,76,0.00,CLR,,0.00,WeatherDisplay:10.37,2013-01-10 06:16:00,
2013-01-10 01:21:00,76.5,68.3,30.30,SE,135,6.9,6.9,76,0.00,CLR,,0.00,WeatherDisplay:10.37,2013-01-10 06:21:00,
2013-01-10 01:26:00,76.5,68.3,30.30,East,90,8.5,8.5,76,0.00,CLR,,0.00,WeatherDisplay:10.37,2013-01-10 06:26:00,
2013-01-10 01:31:00,76.5,68.3,30.30,NE,45,9.2,9.2,76,0.00,CLR,,0.00,WeatherDisplay:10.37,2013-01-10 06:31:00,
2013-01-10 01:36:00,76.5,67.9,30.30,ESE,112,15.0,15.0,75,0.00,CLR,,0.00,WeatherDisplay:10.37,2013-01-10 06:36:00,
2013-01-10 01:41:00,76.5,67.9,30.30,East,90,12.7,12.7,75,0.00,CLR,,0.00,WeatherDisplay:10.37,2013-01-10 06:41:00,
2013-01-10 01:46:00,76.5,67.9,30.27,ESE,112,8.1,8.1,75,0.00,CLR,,0.00,WeatherDisplay:10.37,2013-01-10 06:46:00,
2013-01-10 01:52:00,76.5,67.9,30.27,East,90,16.1,16.1,75,0.00,CLR,,0.00,WeatherDisplay:10.37,2013-01-10 06:52:00,
2013-01-10 01:57:00,76.3,67.4,30.27,NE,45,11.5,11.5,74,0.00,CLR,,0.00,WeatherDisplay:10.37,2013-01-10 06:57:00,
2013-01-10 02:02:00,76.3,67.4,30.27,SSE,158,12.7,12.7,74,0.00,CLR,,0.00,WeatherDisplay:10.37,2013-01-10 07:02:00,
2013-01-10 02:07:00,76.3,67.8,30.27,ENE,68,9.2,9.2,75,0.00,CLR,,0.00,WeatherDisplay:10.37,2013-01-10 07:07:00,
2013-01-10 02:12:00,76.1,67.6,30.27,SE,135,9.2,9.2,75,0.00,CLR,,0.00,WeatherDisplay:10.37,2013-01-10 07:12:00,
2013-01-10 02:17:00,76.1,66.8,30.30,ESE,112,12.7,12.7,73,0.00,CLR,,0.00,WeatherDisplay:10.37,2013-01-10 07:17:00,
2013-01-10 02:22:00,76.1,66.8,30.30,South,180,15.2,15.2,73,0.00,CLR,,0.00,WeatherDisplay:10.37,2013-01-10 07:22:00,
2013-01-10 02:27:00,76.3,67.4,30.30,NE,45,15.0,15.0,74,0.00,CLR,,0.00,WeatherDisplay:10.37,2013-01-10 07:27:00,
2013-01-10 02:32:00,76.3,67.4,30.27,SSE,158,6.9,6.9,74,0.00,CLR,,0.00,WeatherDisplay:10.37,2013-01-10 07:32:00,
2013-01-10 02:37:00,76.1,67.2,30.27,ENE,68,8.1,8.1,74,0.00,CLR,,0.00,WeatherDisplay:10.37,2013-01-10 07:37:00,
2013-01-10 02:43:00,76.3,67.0,30.27,SE,135,6.9,6.9,73,0.00,CLR,,0.00,WeatherDisplay:10.37,2013-01-10 07:43:00,
2013-01-10 02:48:00,76.3,67.0,30.27,SE,135,13.8,13.8,73,0.00,CLR,,0.00,WeatherDisplay:10.37,2013-01-10 07:48:00,
2013-01-10 02:53:00,76.3,66.6,30.27,West,270,9.2,9.2,72,0.00,CLR,,0.00,WeatherDisplay:10.37,2013-01-10 07:53:00,
2013-01-10 02:58:00,76.3,66.6,30.27,SSW,202,10.4,10.4,72,0.00,CLR,,0.00,WeatherDisplay:10.37,2013-01-10 07:58:00,
2013-01-10 03:03:00,76.1,66.8,30.27,SE,135,10.7,10.7,73,0.00,CLR,,0.00,WeatherDisplay:10.37,2013-01-10 08:03:00,
2013-01-10 03:08:00,76.1,66.4,30.27,NE,45,10.0,10.0,72,0.00,CLR,,0.00,WeatherDisplay:10.37,2013-01-10 08:08:00,
2013-01-10 03:13:00,75.9,66.2,30.27,ENE,68,6.9,6.9,72,0.00,CLR,,0.00,WeatherDisplay:10.37,2013-01-10 08:13:00,
2013-01-10 03:18:00,75.9,66.2,30.27,East,90,8.1,8.1,72,0.00,CLR,,0.00,WeatherDisplay:10.37,2013-01-10 08:18:00,
2013-01-10 03:23:00,75.9,66.6,30.27,ESE,112,9.8,9.8,73,0.00,CLR,,0.00,WeatherDisplay:10.37,2013-01-10 08:23:00,
2013-01-10 03:28:00,75.9,66.6,30.27,ENE,68,10.0,10.0,73,0.00,CLR,,0.00,WeatherDisplay:10.37,2013-01-10 08:28:00,
2013-01-10 03:34:00,75.9,66.6,30.27,ESE,112,9.2,9.2,73,0.00,CLR,,0.00,WeatherDisplay:10.37,2013-01-10 08:34:00,
2013-01-10 03:39:00,75.9,67.0,30.27,ESE,112,4.6,5.6,74,0.00,CLR,,0.00,WeatherDisplay:10.37,2013-01-10 08:39:00,
2013-01-10 03:44:00,75.9,66.2,30.27,SE,135,8.1,8.1,72,0.00,CLR,,0.00,WeatherDisplay:10.37,2013-01-10 08:44:00,
2013-01-10 03:49:00,75.9,66.6,30.27,East,90,6.9,6.9,73,0.00,CLR,,0.00,WeatherDisplay:10.37,2013-01-10 08:49:00,
2013-01-10 03:54:00,75.9,67.0,30.27,SSW,202,11.5,11.5,74,0.00,CLR,,0.00,WeatherDisplay:10.37,2013-01-10 08:54:00,
2013-01-10 03:59:00,75.9,66.6,30.27,SSE,158,13.8,13.8,73,0.00,CLR,,0.00,WeatherDisplay:10.37,2013-01-10 08:59:00,
2013-01-10 04:04:00,75.9,66.6,30.27,East,90,8.1,8.1,73,0.00,CLR,,0.00,WeatherDisplay:10.37,2013-01-10 09:04:00,
2013-01-10 04:10:00,75.9,66.6,30.27,South,180,9.2,9.2,73,0.00,CLR,,0.00,WeatherDisplay:10.37,2013-01-10 09:10:00,
2013-01-10 04:15:00,75.9,66.6,30.27,ENE,68,15.0,15.0,73,0.00,CLR,,0.00,WeatherDisplay:10.37,2013-01-10 09:15:00,
2013-01-10 04:20:00,75.7,66.1,30.27,SSE,152,7.0,15.0,72,0.00,CLR,,0.00,WeatherDisplay:10.37,2013-01-10 09:20:00,
2013-01-10 04:25:00,75.9,66.2,30.27,SE,135,10.9,10.9,72,0.00,CLR,,0.00,WeatherDisplay:10.37,2013-01-10 09:25:00,
2013-01-10 04:30:00,76.1,66.0,30.27,SSE,158,10.4,10.4,71,0.00,CLR,,0.00,WeatherDisplay:10.37,2013-01-10 09:30:00,
2013-01-10 04:36:00,76.1,66.0,30.27,ENE,68,10.4,10.4,71,0.00,CLR,,0.00,WeatherDisplay:10.37,2013-01-10 09:36:00,
2013-01-10 04:41:00,75.9,65.8,30.27,NE,45,9.8,9.8,71,0.00,CLR,,0.00,WeatherDisplay:10.37,2013-01-10 09:41:00,
2013-01-10 04:46:00,75.9,66.2,30.27,South,180,4.6,4.6,72,0.00,CLR,,0.00,WeatherDisplay:10.37,2013-01-10 09:46:00,
2013-01-10 04:51:00,75.9,66.2,30.24,ESE,112,12.5,12.5,72,0.00,CLR,,0.00,WeatherDisplay:10.37,2013-01-10 09:51:00,
2013-01-10 04:56:00,75.7,65.7,30.24,SE,135,15.0,15.0,71,0.00,CLR,,0.00,WeatherDisplay:10.37,2013-01-10 09:56:00,
2013-01-10 05:01:00,75.9,65.8,30.27,NE,45,8.1,8.1,71,0.00,CLR,,0.00,WeatherDisplay:10.37,2013-01-10 10:01:00,
2013-01-10 05:07:00,75.7,65.3,30.27,ENE,68,8.1,8.1,70,0.00,CLR,,0.00,WeatherDisplay:10.37,2013-01-10 10:07:00,
2013-01-10 05:12:00,75.7,65.3,30.27,SE,135,8.1,8.1,70,0.00,CLR,,0.00,WeatherDisplay:10.37,2013-01-10 10:12:00,
2013-01-10 05:17:00,75.7,65.3,30.27,NNE,22,5.8,5.8,70,0.00,CLR,,0.00,WeatherDisplay:10.37,2013-01-10 10:17:00,
2013-01-10 05:22:00,75.7,66.1,30.27,East,90,8.1,8.1,72,0.00,CLR,,0.00,WeatherDisplay:10.37,2013-01-10 10:22:00,
2013-01-10 05:27:00,75.7,66.1,30.27,NE,45,10.4,10.4,72,0.00,CLR,,0.00,WeatherDisplay:10.37,2013-01-10 10:27:00,
2013-01-10 05:32:00,75.6,65.9,30.27,East,90,8.1,8.1,72,0.00,CLR,,0.00,WeatherDisplay:10.37,2013-01-10 10:32:00,
2013-01-10 05:37:00,75.6,65.5,30.27,SE,135,12.3,12.3,71,0.00,CLR,,0.00,WeatherDisplay:10.37,2013-01-10 10:37:00,
2013-01-10 05:42:00,75.6,65.9,30.27,SE,135,9.2,9.2,72,0.00,CLR,,0.00,WeatherDisplay:10.37,2013-01-10 10:42:00,
2013-01-10 05:47:00,75.6,65.9,30.24,East,90,9.2,9.2,72,0.00,CLR,,0.00,WeatherDisplay:10.37,2013-01-10 10:47:00,
2013-01-10 05:53:00,75.6,65.9,30.24,ESE,112,6.9,6.9,72,0.00,CLR,,0.00,WeatherDisplay:10.37,2013-01-10 10:53:00,
2013-01-10 05:58:00,75.4,66.1,30.24,ENE,68,5.8,5.8,73,0.00,CLR,,0.00,WeatherDisplay:10.37,2013-01-10 10:58:00,
2013-01-10 06:03:00,75.4,66.5,30.27,ENE,68,8.1,8.1,74,0.00,CLR,,0.00,WeatherDisplay:10.37,2013-01-10 11:03:00,
2013-01-10 06:08:00,75.4,66.1,30.27,ESE,112,9.8,9.8,73,0.00,CLR,,0.00,WeatherDisplay:10.37,2013-01-10 11:08:00,
2013-01-10 06:13:00,75.4,66.1,30.27,SE,135,10.9,10.9,73,0.00,CLR,,0.00,WeatherDisplay:10.37,2013-01-10 11:13:00,
2013-01-10 06:18:00,75.4,66.1,30.27,SE,135,10.4,10.4,73,0.00,CLR,,0.00,WeatherDisplay:10.37,2013-01-10 11:18:00,
2013-01-10 06:24:00,75.4,66.1,30.27,South,180,9.2,9.2,73,0.00,CLR,,0.00,WeatherDisplay:10.37,2013-01-10 11:24:00,
2013-01-10 06:29:00,75.4,66.1,30.27,ESE,112,8.1,8.1,73,0.00,CLR,,0.00,WeatherDisplay:10.37,2013-01-10 11:29:00,
2013-01-10 06:34:00,75.4,65.7,30.27,SE,135,9.7,9.7,72,0.00,CLR,,0.00,WeatherDisplay:10.37,2013-01-10 11:34:00,
2013-01-10 06:39:00,75.4,66.1,30.27,SE,135,7.8,9.0,73,0.00,CLR,,0.00,WeatherDisplay:10.37,2013-01-10 11:39:00,
2013-01-10 06:44:00,75.4,65.7,30.27,South,180,9.8,9.8,72,0.00,CLR,,0.00,WeatherDisplay:10.37,2013-01-10 11:44:00,
2013-01-10 06:49:00,75.4,65.7,30.27,SSW,202,10.4,10.4,72,0.00,CLR,,0.00,WeatherDisplay:10.37,2013-01-10 11:49:00,
2013-01-10 06:55:00,75.4,65.7,30.27,East,90,9.2,9.2,72,0.00,CLR,,0.00,WeatherDisplay:10.37,2013-01-10 11:55:00,
2013-01-10 07:00:00,75.4,65.7,30.27,ESE,112,10.4,10.4,72,0.00,CLR,,0.00,WeatherDisplay:10.37,2013-01-10 12:00:00,
2013-01-10 07:05:00,75.4,65.7,30.30,SE,131,7.0,12.0,72,0.00,CLR,,0.00,WeatherDisplay:10.37,2013-01-10 12:05:00,
2013-01-10 07:10:00,75.4,65.7,30.30,SE,135,11.5,11.5,72,0.00,CLR,,0.00,WeatherDisplay:10.37,2013-01-10 12:10:00,
2013-01-10 07:15:00,75.4,65.3,30.30,ESE,112,8.1,8.1,71,0.00,CLR,,0.00,WeatherDisplay:10.37,2013-01-10 12:15:00,
2013-01-10 07:20:00,75.4,65.7,30.30,ESE,112,10.4,10.4,72,0.00,CLR,,0.00,WeatherDisplay:10.37,2013-01-10 12:20:00,
2013-01-10 07:25:00,75.4,65.3,30.30,ESE,112,10.4,10.4,71,0.00,CLR,,0.00,WeatherDisplay:10.37,2013-01-10 12:25:00,
2013-01-10 07:30:00,75.4,65.3,30.30,ESE,112,10.4,10.4,71,0.00,CLR,,0.00,WeatherDisplay:10.37,2013-01-10 12:30:00,
2013-01-10 07:36:00,75.6,65.9,30.30,ESE,112,12.3,12.3,72,0.00,CLR,,0.00,WeatherDisplay:10.37,2013-01-10 12:36:00,
2013-01-10 07:41:00,75.6,65.5,30.30,East,90,9.2,9.2,71,0.00,CLR,,0.00,WeatherDisplay:10.37,2013-01-10 12:41:00,
2013-01-10 07:46:00,75.6,65.5,30.30,NE,45,10.4,10.4,71,0.00,CLR,,0.00,WeatherDisplay:10.37,2013-01-10 12:46:00,
2013-01-10 07:51:00,75.6,65.5,30.30,West,270,10.4,10.4,71,0.00,CLR,,0.00,WeatherDisplay:10.37,2013-01-10 12:51:00,
2013-01-10 07:56:00,75.7,65.7,30.30,East,90,9.8,9.8,71,0.00,CLR,,0.00,WeatherDisplay:10.37,2013-01-10 12:56:00,
2013-01-10 08:02:00,75.7,65.7,30.33,East,90,9.2,9.2,71,0.00,CLR,,0.00,WeatherDisplay:10.37,2013-01-10 13:02:00,
2013-01-10 08:07:00,75.7,65.7,30.33,East,90,8.1,8.1,71,0.00,CLR,,0.00,WeatherDisplay:10.37,2013-01-10 13:07:00,
2013-01-10 08:12:00,75.9,65.8,30.33,ESE,112,8.1,8.1,71,0.00,CLR,,0.00,WeatherDisplay:10.37,2013-01-10 13:12:00,
2013-01-10 08:18:00,75.7,65.7,30.30,East,90,8.1,8.1,71,0.00,CLR,,0.00,WeatherDisplay:10.37,2013-01-10 13:18:00,
2013-01-10 08:23:00,75.7,65.7,30.30,East,90,9.2,9.2,71,0.00,CLR,,0.00,WeatherDisplay:10.37,2013-01-10 13:23:00,
2013-01-10 08:28:00,75.7,65.7,30.30,SSE,158,9.2,9.2,71,0.00,CLR,,0.00,WeatherDisplay:10.37,2013-01-10 13:28:00,
2013-01-10 08:33:00,75.7,65.7,30.33,East,90,9.7,9.7,71,0.00,CLR,,0.00,WeatherDisplay:10.37,2013-01-10 13:33:00,
2013-01-10 08:38:00,75.7,65.7,30.33,South,180,9.2,9.2,71,0.00,CLR,,0.00,WeatherDisplay:10.37,2013-01-10 13:38:00,
2013-01-10 08:44:00,75.9,65.8,30.33,NE,45,10.4,10.4,71,0.00,CLR,,0.00,WeatherDisplay:10.37,2013-01-10 13:44:00,
2013-01-10 08:49:00,76.1,66.0,30.33,SSW,202,10.9,10.9,71,0.00,CLR,,0.00,WeatherDisplay:10.37,2013-01-10 13:49:00,
2013-01-10 08:54:00,76.3,66.2,30.33,SE,135,10.4,10.4,71,0.00,CLR,,0.00,WeatherDisplay:10.37,2013-01-10 13:54:00,
2013-01-10 08:59:00,76.5,65.9,30.33,SE,135,12.7,12.7,70,0.00,CLR,,0.00,WeatherDisplay:10.37,2013-01-10 13:59:00,
2013-01-10 09:04:00,76.5,65.9,30.33,East,90,11.5,11.5,70,0.00,CLR,,0.00,WeatherDisplay:10.37,2013-01-10 14:04:00,
2013-01-10 09:09:00,76.5,65.9,30.33,SE,135,10.4,10.4,70,0.00,CLR,,0.00,WeatherDisplay:10.37,2013-01-10 14:09:00,
2013-01-10 09:14:00,76.6,66.1,30.33,SE,135,10.4,10.4,70,0.00,CLR,,0.00,WeatherDisplay:10.37,2013-01-10 14:14:00,
2013-01-10 09:19:00,76.6,66.1,30.33,SSE,158,11.5,11.5,70,0.00,CLR,,0.00,WeatherDisplay:10.37,2013-01-10 14:19:00,
2013-01-10 09:25:00,76.8,66.3,30.33,SE,135,8.1,8.1,70,0.00,CLR,,0.00,WeatherDisplay:10.37,2013-01-10 14:25:00,
2013-01-10 09:30:00,76.8,66.3,30.33,North,0,11.5,11.5,70,0.00,CLR,,0.00,WeatherDisplay:10.37,2013-01-10 14:30:00,
2013-01-10 09:35:00,77.0,66.0,30.33,SE,135,6.0,9.0,69,0.00,CLR,,0.00,WeatherDisplay:10.37,2013-01-10 14:35:00,
2013-01-10 09:40:00,77.0,66.0,30.33,ESE,112,11.8,11.8,69,0.00,CLR,,0.00,WeatherDisplay:10.37,2013-01-10 14:40:00,
2013-01-10 09:45:00,77.2,65.8,30.33,ESE,112,7.4,7.4,68,0.00,CLR,,0.00,WeatherDisplay:10.37,2013-01-10 14:45:00,
2013-01-10 09:50:00,77.2,65.8,30.33,SE,135,8.1,8.1,68,0.00,CLR,,0.00,WeatherDisplay:10.37,2013-01-10 14:50:00,
2013-01-10 09:55:00,77.4,66.0,30.33,South,180,10.4,10.4,68,0.00,CLR,,0.00,WeatherDisplay:10.37,2013-01-10 14:55:00,
2013-01-10 10:01:00,77.5,66.1,30.33,NE,45,10.4,10.4,68,0.00,CLR,,0.00,WeatherDisplay:10.37,2013-01-10 15:01:00,
2013-01-10 10:06:00,77.5,65.7,30.33,SE,135,10.4,10.4,67,0.00,CLR,,0.00,WeatherDisplay:10.37,2013-01-10 15:06:00,
2013-01-10 10:11:00,77.7,65.9,30.33,ESE,112,13.0,13.0,67,0.00,CLR,,0.00,WeatherDisplay:10.37,2013-01-10 15:11:00,
2013-01-10 10:16:00,77.7,65.9,30.30,ENE,68,10.4,10.4,67,0.00,CLR,,0.00,WeatherDisplay:10.37,2013-01-10 15:16:00,
2013-01-10 10:21:00,77.7,65.9,30.30,WNW,292,9.8,9.8,67,0.00,CLR,,0.00,WeatherDisplay:10.37,2013-01-10 15:21:00,
2013-01-10 10:27:00,77.9,66.1,30.30,South,180,8.7,8.7,67,0.00,CLR,,0.00,WeatherDisplay:10.37,2013-01-10 15:27:00,
2013-01-10 10:32:00,78.1,66.2,30.30,SE,135,9.2,9.2,67,0.00,CLR,,0.00,WeatherDisplay:10.37,2013-01-10 15:32:00,
2013-01-10 10:37:00,78.1,66.2,30.30,SE,135,6.9,6.9,67,0.00,CLR,,0.00,WeatherDisplay:10.37,2013-01-10 15:37:00,
2013-01-10 10:42:00,78.1,66.2,30.30,East,90,10.4,10.4,67,0.00,CLR,,0.00,WeatherDisplay:10.37,2013-01-10 15:42:00,
2013-01-10 10:47:00,78.1,66.2,30.30,SE,135,9.2,9.2,67,0.00,CLR,,0.00,WeatherDisplay:10.37,2013-01-10 15:47:00,
2013-01-10 10:52:00,78.3,66.4,30.30,SE,135,9.2,9.2,67,0.00,CLR,,0.00,WeatherDisplay:10.37,2013-01-10 15:52:00,
2013-01-10 10:58:00,78.4,66.6,30.30,ENE,68,8.1,8.1,67,0.00,CLR,,0.00,WeatherDisplay:10.37,2013-01-10 15:58:00,
2013-01-10 11:03:00,78.4,66.6,30.30,NE,45,10.4,10.4,67,0.00,CLR,,0.00,WeatherDisplay:10.37,2013-01-10 16:03:00,
2013-01-10 11:08:00,78.4,66.6,30.30,South,180,9.7,9.7,67,0.00,CLR,,0.00,WeatherDisplay:10.37,2013-01-10 16:08:00,
2013-01-10 11:13:00,78.4,66.6,30.30,SE,135,12.7,12.7,67,0.00,CLR,,0.00,WeatherDisplay:10.37,2013-01-10 16:13:00,
2013-01-10 11:18:00,78.4,66.6,30.30,ESE,112,15.0,15.0,67,0.00,CLR,,0.00,WeatherDisplay:10.37,2013-01-10 16:18:00,
2013-01-10 11:23:00,78.4,66.1,30.30,ENE,68,10.4,10.4,66,0.00,CLR,,0.00,WeatherDisplay:10.37,2013-01-10 16:23:00,
2013-01-10 11:29:00,78.4,66.6,30.30,SE,135,10.4,10.4,67,0.00,CLR,,0.00,WeatherDisplay:10.37,2013-01-10 16:29:00,
2013-01-10 11:34:00,78.4,66.6,30.30,SE,135,12.7,12.7,67,0.00,CLR,,0.00,WeatherDisplay:10.37,2013-01-10 16:34:00,
2013-01-10 11:39:00,78.6,66.3,30.30,South,180,5.8,5.8,66,0.00,CLR,,0.00,WeatherDisplay:10.37,2013-01-10 16:39:00,
2013-01-10 11:44:00,78.6,65.9,30.30,ESE,112,11.5,11.5,65,0.00,CLR,,0.00,WeatherDisplay:10.37,2013-01-10 16:44:00,
2013-01-10 11:49:00,78.6,65.9,30.30,East,90,8.1,9.4,65,0.00,CLR,,0.00,WeatherDisplay:10.37,2013-01-10 16:49:00,
2013-01-10 11:54:00,78.6,65.9,30.30,ESE,112,10.4,10.4,65,0.00,CLR,,0.00,WeatherDisplay:10.37,2013-01-10 16:54:00,
2013-01-10 11:59:00,79.0,65.8,30.30,East,90,9.2,9.2,64,0.00,CLR,,0.00,WeatherDisplay:10.37,2013-01-10 16:59:00,
2013-01-10 12:05:00,79.0,65.8,30.27,SE,135,10.9,10.9,64,0.00,CLR,,0.00,WeatherDisplay:10.37,2013-01-10 17:05:00,
2013-01-10 12:10:00,78.8,65.1,30.27,ESE,112,13.8,13.8,63,0.00,CLR,,0.00,WeatherDisplay:10.37,2013-01-10 17:10:00,
2013-01-10 12:15:00,78.8,65.1,30.27,East,90,11.5,11.5,63,0.00,CLR,,0.00,WeatherDisplay:10.37,2013-01-10 17:15:00,
2013-01-10 12:20:00,78.6,65.4,30.27,ESE,112,6.2,9.7,64,0.00,CLR,,0.00,WeatherDisplay:10.37,2013-01-10 17:20:00,
2013-01-10 12:25:00,78.8,65.1,30.27,SSE,158,17.3,17.3,63,0.00,CLR,,0.00,WeatherDisplay:10.37,2013-01-10 17:25:00,
2013-01-10 12:30:00,78.8,65.1,30.27,NE,45,11.5,11.5,63,0.00,CLR,,0.00,WeatherDisplay:10.37,2013-01-10 17:30:00,
2013-01-10 12:35:00,78.8,65.1,30.27,SE,135,16.3,16.3,63,0.00,CLR,,0.00,WeatherDisplay:10.37,2013-01-10 17:35:00,
2013-01-10 12:40:00,78.7,65.5,30.27,East,98,3.0,16.0,64,0.00,CLR,,0.00,WeatherDisplay:10.37,2013-01-10 17:40:00,
2013-01-10 12:45:00,78.6,65.0,30.27,ESE,112,7.4,7.4,63,0.00,CLR,,0.00,WeatherDisplay:10.37,2013-01-10 17:45:00,
2013-01-10 12:50:00,78.8,64.7,30.24,WSW,248,9.2,9.2,62,0.00,CLR,,0.00,WeatherDisplay:10.37,2013-01-10 17:50:00,
2013-01-10 12:55:00,78.8,64.2,30.24,SW,225,10.4,10.4,61,0.00,CLR,,0.00,WeatherDisplay:10.37,2013-01-10 17:55:00,
2013-01-10 13:00:00,78.9,64.3,30.24,East,100,6.0,9.0,61,0.00,CLR,,0.00,WeatherDisplay:10.37,2013-01-10 18:00:00,
2013-01-10 13:06:00,79.2,64.6,30.27,ESE,112,9.2,9.2,61,0.00,CLR,,0.00,WeatherDisplay:10.37,2013-01-10 18:06:00,
2013-01-10 13:11:00,79.0,63.9,30.27,East,90,12.7,12.7,60,0.00,CLR,,0.00,WeatherDisplay:10.37,2013-01-10 18:11:00,
2013-01-10 13:16:00,79.0,64.4,30.21,South,180,11.5,11.5,61,0.00,CLR,,0.00,WeatherDisplay:10.37,2013-01-10 18:16:00,
2013-01-10 13:21:00,79.2,64.6,30.21,ENE,68,9.2,9.2,61,0.00,CLR,,0.00,WeatherDisplay:10.37,2013-01-10 18:21:00,
2013-01-10 13:26:00,79.2,65.0,30.21,East,90,5.9,5.9,62,0.00,CLR,,0.00,WeatherDisplay:10.37,2013-01-10 18:26:00,
2013-01-10 13:31:00,79.0,64.8,30.21,East,90,9.8,9.8,62,0.00,CLR,,0.00,WeatherDisplay:10.37,2013-01-10 18:31:00,
2013-01-10 13:37:00,78.6,64.5,30.21,ESE,112,11.5,11.5,62,0.00,CLR,,0.00,WeatherDisplay:10.37,2013-01-10 18:37:00,
2013-01-10 13:42:00,78.8,64.7,30.21,ESE,112,12.7,12.7,62,0.00,CLR,,0.00,WeatherDisplay:10.37,2013-01-10 18:42:00,
2013-01-10 13:47:00,79.0,64.8,30.21,SE,135,11.5,11.5,62,0.00,CLR,,0.00,WeatherDisplay:10.37,2013-01-10 18:47:00,
2013-01-10 13:52:00,79.2,65.0,30.21,SE,135,10.4,10.4,62,0.00,CLR,,0.00,WeatherDisplay:10.37,2013-01-10 18:52:00,
2013-01-10 13:57:00,79.3,64.7,30.21,ENE,68,15.0,15.0,61,0.00,CLR,,0.00,WeatherDisplay:10.37,2013-01-10 18:57:00,
2013-01-10 14:02:00,79.3,64.2,30.21,ESE,112,10.7,10.7,60,0.00,CLR,,0.00,WeatherDisplay:10.37,2013-01-10 19:02:00,
2013-01-10 14:07:00,79.3,64.2,30.21,East,90,12.1,12.1,60,0.00,CLR,,0.00,WeatherDisplay:10.37,2013-01-10 19:07:00,
2013-01-10 14:12:00,79.5,64.9,30.21,East,90,8.1,8.1,61,0.00,CLR,,0.00,WeatherDisplay:10.37,2013-01-10 19:12:00,
2013-01-10 14:17:00,79.3,64.2,30.18,West,270,9.2,9.2,60,0.00,CLR,,0.00,WeatherDisplay:10.37,2013-01-10 19:17:00,
2013-01-10 14:23:00,79.3,64.2,30.18,NNE,22,10.4,10.4,60,0.00,CLR,,0.00,WeatherDisplay:10.37,2013-01-10 19:23:00,
2013-01-10 14:28:00,79.3,64.2,30.18,East,90,8.1,8.1,60,0.00,CLR,,0.00,WeatherDisplay:10.37,2013-01-10 19:28:00,
2013-01-10 14:33:00,79.3,64.2,30.21,SE,135,8.1,8.1,60,0.00,CLR,,0.00,WeatherDisplay:10.37,2013-01-10 19:33:00,
2013-01-10 14:38:00,79.7,65.1,30.21,ESE,112,8.1,8.1,61,0.00,CLR,,0.00,WeatherDisplay:10.37,2013-01-10 19:38:00,
2013-01-10 14:44:00,79.5,64.4,30.21,East,90,11.5,11.5,60,0.00,CLR,,0.00,WeatherDisplay:10.37,2013-01-10 19:44:00,
2013-01-10 14:49:00,79.7,65.1,30.21,ESE,112,10.4,10.4,61,0.00,CLR,,0.00,WeatherDisplay:10.37,2013-01-10 19:49:00,
2013-01-10 14:54:00,79.7,65.1,30.21,SSE,158,8.1,8.1,61,0.00,CLR,,0.00,WeatherDisplay:10.37,2013-01-10 19:54:00,
2013-01-10 14:59:00,79.7,64.6,30.21,East,90,8.1,8.1,60,0.00,CLR,,0.00,WeatherDisplay:10.37,2013-01-10 19:59:00,
2013-01-10 15:04:00,79.7,64.1,30.21,SSW,202,4.6,4.6,59,0.00,CLR,,0.00,WeatherDisplay:10.37,2013-01-10 20:04:00,
2013-01-10 15:09:00,80.1,64.9,30.21,South,180,15.2,15.2,60,0.00,CLR,,0.00,WeatherDisplay:10.37,2013-01-10 20:09:00,
2013-01-10 15:14:00,80.1,65.4,30.21,East,90,6.0,6.4,61,0.00,CLR,,0.00,WeatherDisplay:10.37,2013-01-10 20:14:00,
2013-01-10 15:20:00,80.2,65.6,30.24,NE,45,9.8,9.8,61,0.00,CLR,,0.00,WeatherDisplay:10.37,2013-01-10 20:20:00,
2013-01-10 15:25:00,79.7,65.1,30.24,East,88,6.0,9.0,61,0.00,CLR,,0.00,WeatherDisplay:10.37,2013-01-10 20:25:00,
2013-01-10 15:30:00,79.3,64.7,30.24,SE,135,10.4,10.4,61,0.00,CLR,,0.00,WeatherDisplay:10.37,2013-01-10 20:30:00,
2013-01-10 15:35:00,79.3,65.2,30.24,ESE,112,9.2,9.2,62,0.00,CLR,,0.00,WeatherDisplay:10.37,2013-01-10 20:35:00,
2013-01-10 15:40:00,79.2,65.0,30.24,NNE,22,8.7,8.7,62,0.00,CLR,,0.00,WeatherDisplay:10.37,2013-01-10 20:40:00,
2013-01-10 15:45:00,79.2,64.6,30.24,East,92,5.0,9.0,61,0.00,CLR,,0.00,WeatherDisplay:10.37,2013-01-10 20:45:00,
2013-01-10 15:51:00,79.3,64.2,30.27,East,90,5.4,5.4,60,0.00,CLR,,0.00,WeatherDisplay:10.37,2013-01-10 20:51:00,
2013-01-10 15:56:00,79.2,64.6,30.27,East,90,3.5,3.5,61,0.00,CLR,,0.00,WeatherDisplay:10.37,2013-01-10 20:56:00,
2013-01-10 16:01:00,79.2,64.6,30.27,NE,45,6.4,6.4,61,0.00,CLR,,0.00,WeatherDisplay:10.37,2013-01-10 21:01:00,
2013-01-10 16:06:00,79.2,64.6,30.27,ENE,68,8.1,8.1,61,0.00,CLR,,0.00,WeatherDisplay:10.37,2013-01-10 21:06:00,
2013-01-10 16:11:00,79.2,64.6,30.27,ESE,112,6.2,6.2,61,0.00,CLR,,0.00,WeatherDisplay:10.37,2013-01-10 21:11:00,
2013-01-10 16:16:00,79.3,65.2,30.27,SE,135,8.1,8.1,62,0.00,CLR,,0.00,WeatherDisplay:10.37,2013-01-10 21:16:00,
2013-01-10 16:21:00,79.3,65.2,30.27,SW,225,5.8,5.8,62,0.00,CLR,,0.00,WeatherDisplay:10.37,2013-01-10 21:21:00,
2013-01-10 16:27:00,79.2,65.5,30.27,SE,135,3.8,3.8,63,0.00,CLR,,0.00,WeatherDisplay:10.37,2013-01-10 21:27:00,
2013-01-10 16:32:00,79.3,65.2,30.27,ENE,68,6.9,6.9,62,0.00,CLR,,0.00,WeatherDisplay:10.37,2013-01-10 21:32:00,
2013-01-10 16:37:00,79.5,65.4,30.27,SSE,158,3.5,3.5,62,0.00,CLR,,0.00,WeatherDisplay:10.37,2013-01-10 21:37:00,
2013-01-10 16:42:00,79.5,65.4,30.27,East,90,5.8,5.8,62,0.00,CLR,,0.00,WeatherDisplay:10.37,2013-01-10 21:42:00,
2013-01-10 16:47:00,79.2,65.0,30.27,East,90,6.9,6.9,62,0.00,CLR,,0.00,WeatherDisplay:10.37,2013-01-10 21:47:00,
2013-01-10 16:53:00,79.2,65.5,30.27,ESE,112,8.1,8.1,63,0.00,CLR,,0.00,WeatherDisplay:10.37,2013-01-10 21:53:00,
2013-01-10 16:58:00,78.8,65.1,30.27,NE,45,6.9,6.9,63,0.00,CLR,,0.00,WeatherDisplay:10.37,2013-01-10 21:58:00,
2013-01-10 17:03:00,78.4,65.2,30.24,SE,135,8.1,8.1,64,0.00,CLR,,0.00,WeatherDisplay:10.37,2013-01-10 22:03:00,
2013-01-10 17:08:00,78.3,65.1,30.24,NNE,22,6.2,6.2,64,0.00,CLR,,0.00,WeatherDisplay:10.37,2013-01-10 22:08:00,
2013-01-10 17:13:00,78.3,65.5,30.24,East,90,6.9,6.9,65,0.00,CLR,,0.00,WeatherDisplay:10.37,2013-01-10 22:13:00,
2013-01-10 17:19:00,78.1,65.4,30.27,ENE,68,5.8,5.8,65,0.00,CLR,,0.00,WeatherDisplay:10.37,2013-01-10 22:19:00,
2013-01-10 17:24:00,78.1,65.4,30.27,SW,225,6.9,6.9,65,0.00,CLR,,0.00,WeatherDisplay:10.37,2013-01-10 22:24:00,
2013-01-10 17:29:00,78.1,65.4,30.27,SE,135,6.2,6.2,65,0.00,CLR,,0.00,WeatherDisplay:10.37,2013-01-10 22:29:00,
2013-01-10 17:34:00,78.3,65.5,30.27,ESE,112,9.2,9.2,65,0.00,CLR,,0.00,WeatherDisplay:10.37,2013-01-10 22:34:00,
2013-01-10 17:39:00,78.1,65.4,30.27,SSE,158,6.9,6.9,65,0.00,CLR,,0.00,WeatherDisplay:10.37,2013-01-10 22:39:00,
2013-01-10 17:45:00,77.9,65.2,30.27,East,90,5.8,5.8,65,0.00,CLR,,0.00,WeatherDisplay:10.37,2013-01-10 22:45:00,
2013-01-10 17:50:00,77.7,65.5,30.27,West,270,8.5,8.5,66,0.00,CLR,,0.00,WeatherDisplay:10.37,2013-01-10 22:50:00,
2013-01-10 17:55:00,77.6,65.3,30.27,ENE,75,5.0,8.0,66,0.00,CLR,,0.00,WeatherDisplay:10.37,2013-01-10 22:55:00,
2013-01-10 18:00:00,77.5,65.3,30.27,East,90,7.4,7.4,66,0.00,CLR,,0.00,WeatherDisplay:10.37,2013-01-10 23:00:00,
2013-01-10 18:05:00,77.4,65.1,30.27,ENE,68,5.9,5.9,66,0.00,CLR,,0.00,WeatherDisplay:10.37,2013-01-10 23:05:00,
2013-01-10 18:10:00,77.2,64.9,30.27,ESE,112,5.8,5.8,66,0.00,CLR,,0.00,WeatherDisplay:10.37,2013-01-10 23:10:00,
2013-01-10 18:15:00,77.4,65.1,30.27,East,80,6.0,8.0,66,0.00,CLR,,0.00,WeatherDisplay:10.37,2013-01-10 23:15:00,
2013-01-10 18:21:00,77.4,65.5,30.27,ESE,112,6.9,6.9,67,0.00,CLR,,0.00,WeatherDisplay:10.37,2013-01-10 23:21:00,
2013-01-10 18:26:00,77.4,65.1,30.27,ESE,112,7.4,7.4,66,0.00,CLR,,0.00,WeatherDisplay:10.37,2013-01-10 23:26:00,
2013-01-10 18:31:00,77.4,65.1,30.27,SSE,158,9.2,9.2,66,0.00,CLR,,0.00,WeatherDisplay:10.37,2013-01-10 23:31:00,
2013-01-10 18:36:00,77.4,65.1,30.27,SSE,158,8.5,8.5,66,0.00,CLR,,0.00,WeatherDisplay:10.37,2013-01-10 23:36:00,
2013-01-10 18:41:00,77.4,65.1,30.27,SE,135,8.1,8.1,66,0.00,CLR,,0.00,WeatherDisplay:10.37,2013-01-10 23:41:00,
2013-01-10 18:47:00,77.0,65.2,30.27,ENE,68,6.0,6.0,67,0.00,CLR,,0.00,WeatherDisplay:10.37,2013-01-10 23:47:00,
2013-01-10 18:52:00,77.0,65.2,30.27,East,90,6.9,6.9,67,0.00,CLR,,0.00,WeatherDisplay:10.37,2013-01-10 23:52:00,
2013-01-10 18:57:00,77.0,64.8,30.27,NW,315,7.8,7.8,66,0.00,CLR,,0.00,WeatherDisplay:10.37,2013-01-10 23:57:00,
2013-01-10 19:02:00,77.0,64.8,30.27,SE,135,6.9,6.9,66,0.00,CLR,,0.00,WeatherDisplay:10.37,2013-01-11 00:02:00,
2013-01-10 19:07:00,77.0,64.8,30.27,East,90,7.8,7.8,66,0.00,CLR,,0.00,WeatherDisplay:10.37,2013-01-11 00:07:00,
2013-01-10 19:12:00,77.0,64.8,30.27,South,180,5.8,5.8,66,0.00,CLR,,0.00,WeatherDisplay:10.37,2013-01-11 00:12:00,
2013-01-10 19:18:00,77.0,64.8,30.27,East,90,7.1,7.1,66,0.00,CLR,,0.00,WeatherDisplay:10.37,2013-01-11 00:18:00,
2013-01-10 19:23:00,76.8,65.0,30.27,SE,135,9.2,9.2,67,0.00,CLR,,0.00,WeatherDisplay:10.37,2013-01-11 00:23:00,
2013-01-10 19:28:00,76.8,65.0,30.27,NNE,22,9.2,9.2,67,0.00,CLR,,0.00,WeatherDisplay:10.37,2013-01-11 00:28:00,
2013-01-10 19:33:00,76.8,65.0,30.27,NNW,338,8.1,8.1,67,0.00,CLR,,0.00,WeatherDisplay:10.37,2013-01-11 00:33:00,
2013-01-10 19:38:00,76.6,64.9,30.27,North,0,8.1,8.1,67,0.00,CLR,,0.00,WeatherDisplay:10.37,2013-01-11 00:38:00,
2013-01-10 19:44:00,76.6,64.4,30.27,East,90,9.2,9.2,66,0.00,CLR,,0.00,WeatherDisplay:10.37,2013-01-11 00:44:00,
2013-01-10 19:49:00,76.6,64.4,30.30,SE,135,8.1,8.1,66,0.00,CLR,,0.00,WeatherDisplay:10.37,2013-01-11 00:49:00,
2013-01-10 19:54:00,76.6,64.9,30.30,SSE,158,8.1,8.1,67,0.00,CLR,,0.00,WeatherDisplay:10.37,2013-01-11 00:54:00,
2013-01-10 19:59:00,76.6,64.9,30.30,SE,135,4.6,4.6,67,0.00,CLR,,0.00,WeatherDisplay:10.37,2013-01-11 00:59:00,
2013-01-10 20:04:00,76.6,65.3,30.27,NE,45,9.2,9.2,68,0.00,CLR,,0.00,WeatherDisplay:10.37,2013-01-11 01:04:00,
2013-01-10 20:09:00,76.6,65.3,30.27,ENE,68,10.0,10.0,68,0.00,CLR,,0.00,WeatherDisplay:10.37,2013-01-11 01:09:00,
2013-01-10 20:15:00,76.5,64.7,30.27,ENE,68,8.5,8.5,67,0.00,CLR,,0.00,WeatherDisplay:10.37,2013-01-11 01:15:00,
2013-01-10 20:20:00,76.5,64.7,30.30,East,90,9.2,9.2,67,0.00,CLR,,0.00,WeatherDisplay:10.37,2013-01-11 01:20:00,
2013-01-10 20:25:00,76.5,65.1,30.30,ESE,112,9.8,9.8,68,0.00,CLR,,0.00,WeatherDisplay:10.37,2013-01-11 01:25:00,
2013-01-10 20:30:00,76.5,64.7,30.30,NE,45,5.9,5.9,67,0.00,CLR,,0.00,WeatherDisplay:10.37,2013-01-11 01:30:00,
2013-01-10 20:35:00,76.5,64.7,30.27,East,84,6.0,9.0,67,0.00,CLR,,0.00,WeatherDisplay:10.37,2013-01-11 01:35:00,
2013-01-10 20:40:00,76.5,65.1,30.27,East,88,5.0,9.0,68,0.00,CLR,,0.00,WeatherDisplay:10.37,2013-01-11 01:40:00,
2013-01-10 20:45:00,76.5,65.1,30.27,East,90,10.4,10.4,68,0.00,CLR,,0.00,WeatherDisplay:10.37,2013-01-11 01:45:00,
2013-01-10 20:51:00,76.3,64.9,30.30,East,90,8.1,8.1,68,0.00,CLR,,0.00,WeatherDisplay:10.37,2013-01-11 01:51:00,
2013-01-10 20:56:00,76.6,64.9,30.30,East,90,8.5,8.5,67,0.00,CLR,,0.00,WeatherDisplay:10.37,2013-01-11 01:56:00,
2013-01-10 21:01:00,76.8,65.5,30.27,SE,135,8.1,8.1,68,0.00,CLR,,0.00,WeatherDisplay:10.37,2013-01-11 02:01:00,
2013-01-10 21:07:00,76.5,64.7,30.27,ENE,68,9.2,9.2,67,0.00,CLR,,0.00,WeatherDisplay:10.37,2013-01-11 02:07:00,
2013-01-10 21:12:00,76.5,65.1,30.27,SE,135,8.1,8.1,68,0.00,CLR,,0.00,WeatherDisplay:10.37,2013-01-11 02:12:00,
2013-01-10 21:17:00,76.3,64.9,30.27,East,90,8.1,8.1,68,0.00,CLR,,0.00,WeatherDisplay:10.37,2013-01-11 02:17:00,
2013-01-10 21:22:00,76.3,64.5,30.27,East,90,5.8,5.8,67,0.00,CLR,,0.00,WeatherDisplay:10.37,2013-01-11 02:22:00,
2013-01-10 21:27:00,76.3,64.9,30.27,ENE,68,8.1,8.1,68,0.00,CLR,,0.00,WeatherDisplay:10.37,2013-01-11 02:27:00,
2013-01-10 21:32:00,76.3,64.9,30.27,ESE,112,6.9,6.9,68,0.00,CLR,,0.00,WeatherDisplay:10.37,2013-01-11 02:32:00,
2013-01-10 21:38:00,76.3,64.9,30.27,NE,45,8.1,8.1,68,0.00,CLR,,0.00,WeatherDisplay:10.37,2013-01-11 02:38:00,
2013-01-10 21:43:00,76.3,64.9,30.27,SE,135,8.1,8.1,68,0.00,CLR,,0.00,WeatherDisplay:10.37,2013-01-11 02:43:00,
2013-01-10 21:48:00,76.3,64.9,30.27,East,90,6.9,6.9,68,0.00,CLR,,0.00,WeatherDisplay:10.37,2013-01-11 02:48:00,
2013-01-10 21:53:00,76.3,64.9,30.27,SE,135,9.8,9.8,68,0.00,CLR,,0.00,WeatherDisplay:10.37,2013-01-11 02:53:00,
2013-01-10 21:59:00,76.3,64.9,30.27,East,90,10.4,10.4,68,0.00,CLR,,0.00,WeatherDisplay:10.37,2013-01-11 02:59:00,
2013-01-10 22:04:00,76.3,64.9,30.27,SSE,158,5.9,5.9,68,0.00,CLR,,0.00,WeatherDisplay:10.37,2013-01-11 03:04:00,
2013-01-10 22:09:00,76.1,64.8,30.27,SSE,158,10.4,10.4,68,0.00,CLR,,0.00,WeatherDisplay:10.37,2013-01-11 03:09:00,
2013-01-10 22:14:00,76.3,64.9,30.27,SE,135,11.5,11.5,68,0.00,CLR,,0.00,WeatherDisplay:10.37,2013-01-11 03:14:00,
2013-01-10 22:19:00,76.3,64.9,30.27,SSE,158,9.2,9.2,68,0.00,CLR,,0.00,WeatherDisplay:10.37,2013-01-11 03:19:00,
2013-01-10 22:24:00,76.3,65.4,30.27,ENE,68,9.2,9.2,69,0.00,CLR,,0.00,WeatherDisplay:10.37,2013-01-11 03:24:00,
2013-01-10 22:29:00,76.3,65.8,30.27,ENE,68,9.2,9.2,70,0.00,CLR,,0.00,WeatherDisplay:10.37,2013-01-11 03:29:00,
2013-01-10 22:34:00,76.3,66.2,30.30,South,180,12.1,12.1,71,0.00,CLR,,0.00,WeatherDisplay:10.37,2013-01-11 03:34:00,
2013-01-10 22:39:00,76.3,66.2,30.30,ESE,112,15.0,15.0,71,0.00,CLR,,0.00,WeatherDisplay:10.37,2013-01-11 03:39:00,
2013-01-10 22:45:00,76.3,65.8,30.30,NE,45,8.7,8.7,70,0.00,CLR,,0.00,WeatherDisplay:10.37,2013-01-11 03:45:00,
2013-01-10 22:50:00,76.3,66.2,30.30,ENE,68,8.1,8.1,71,0.00,CLR,,0.00,WeatherDisplay:10.37,2013-01-11 03:50:00,
2013-01-10 22:55:00,76.3,66.2,30.30,ESE,115,3.0,10.0,71,0.00,CLR,,0.00,WeatherDisplay:10.37,2013-01-11 03:55:00,
2013-01-10 23:00:00,76.1,66.0,30.30,East,90,9.8,9.8,71,0.00,CLR,,0.00,WeatherDisplay:10.37,2013-01-11 04:00:00,
2013-01-10 23:05:00,76.1,66.4,30.30,East,90,9.2,9.2,72,0.00,CLR,,0.00,WeatherDisplay:10.37,2013-01-11 04:05:00,
2013-01-10 23:10:00,76.1,66.4,30.30,ESE,112,12.7,12.7,72,0.00,CLR,,0.00,WeatherDisplay:10.37,2013-01-11 04:10:00,
2013-01-10 23:15:00,76.1,66.4,30.30,ESE,103,7.0,13.0,72,0.00,CLR,,0.00,WeatherDisplay:10.37,2013-01-11 04:15:00,
2013-01-10 23:21:00,76.1,66.4,30.27,ENE,68,10.4,10.4,72,0.00,CLR,,0.00,WeatherDisplay:10.37,2013-01-11 04:21:00,
2013-01-10 23:26:00,76.3,67.0,30.27,ESE,112,9.2,9.2,73,0.00,CLR,,0.00,WeatherDisplay:10.37,2013-01-11 04:26:00,
2013-01-10 23:31:00,76.3,66.6,30.27,East,93,5.0,10.0,72,0.00,CLR,,0.00,WeatherDisplay:10.37,2013-01-11 04:31:00,
2013-01-10 23:36:00,76.3,67.0,30.27,South,180,8.1,8.1,73,0.00,CLR,,0.00,WeatherDisplay:10.37,2013-01-11 04:36:00,
2013-01-10 23:41:00,76.3,67.0,30.27,NE,45,8.1,8.1,73,0.00,CLR,,0.00,WeatherDisplay:10.37,2013-01-11 04:41:00,
2013-01-10 23:47:00,76.1,66.4,30.27,East,90,8.1,8.1,72,0.00,CLR,,0.00,WeatherDisplay:10.37,2013-01-11 04:47:00,
2013-01-10 23:52:00,76.1,66.8,30.27,ENE,68,10.5,10.5,73,0.00,CLR,,0.00,WeatherDisplay:10.37,2013-01-11 04:52:00,
2013-01-10 23:57:00,76.1,66.8,30.27,ESE,112,8.1,8.1,73,0.00,CLR,,0.00,WeatherDisplay:10.37,2013-01-11 04:57:00,